Wind_Speed
40 40 38 24 31 28 29 28 34 41 45 46 49 54 59 64 68 67 68 68 64 59 56 55 53 52 52 52 53 54 57 59 62 64 67 71 74 77 81 83 87 92 96 100
43 36 32 29 22 18 28 29 19 30 35 43 47 51 59 62 66 69 68 64 60 56 55 53 51 51 51 53 56 57 59 62 65 69 71 75 79 82 84 88 91 96 100 103
38 35 32 27 11 17 17 15 22 24 37 43 47 53 59 63 65 66 63 59 56 52 50 50 49 49 52 56 58 59 61 65 68 72 75 79 81 84 88 92 96 99 102 108
38 37 31 32 15 17 26 16 19 21 37 43 48 55 58 58 61 60 57 53 49 48 47 46 47 49 53 57 59 61 64 68 71 75 78 81 84 87 92 95 98 103 107 106
29 37 33 34 28 13 23 26 13 29 37 45 52 54 55 55 55 51 49 47 47 45 45 46 48 51 54 57 60 64 67 70 73 76 78 81 85 89 93 98 103 107 99 99
7 13 30 32 25 17 26 31 24 39 44 49 51 54 52 50 47 47 47 46 46 46 46 48 51 53 56 59 63 66 69 71 73 76 80 84 89 93 98 103 100 95 96 91
3 7 4 8 16 17 22 27 32 36 41 47 48 49 49 48 46 44 43 44 45 46 49 51 53 56 59 61 63 66 70 74 77 81 85 89 94 99 98 92 93 91 86 85
7 12 7 5 8 2 12 26 34 37 42 44 48 49 47 44 42 43 44 45 46 48 51 53 56 58 60 63 67 70 73 77 81 85 90 94 95 89 88 89 85 80 82 90
11 12 11 7 7 10 11 21 32 34 40 44 47 47 45 43 43 43 43 44 46 49 51 54 57 60 63 67 70 73 76 81 86 89 90 85 85 85 82 75 75 81 87 94
10 13 14 14 13 12 16 18 28 34 39 45 45 44 43 44 44 43 45 47 49 51 53 56 59 62 66 70 74 78 82 83 83 80 81 82 79 72 70 76 81 87 93 99
14 13 14 17 18 17 20 25 31 36 41 44 44 44 44 45 45 47 49 50 52 54 56 59 63 68 71 74 76 76 76 74 76 78 76 68 66 69 75 82 87 92 98 104
14 15 16 17 19 22 22 24 30 37 41 42 42 42 43 44 46 48 50 53 56 58 62 65 70 70 68 67 67 69 71 74 74 68 63 64 70 76 81 87 94 100 105 110
14 16 17 18 19 20 26 29 32 37 40 41 43 44 46 47 49 51 54 58 62 63 64 60 58 58 60 64 67 70 71 67 61 61 64 69 75 81 88 97 103 107 111 118
12 13 14 15 17 22 27 31 34 38 40 43 45 47 48 50 52 52 52 51 50 50 51 53 55 58 63 66 67 65 61 59 60 63 69 74 81 87 93 99 105 111 117 119
10 10 11 12 14 17 20 24 29 34 37 38 38 36 35 35 36 37 39 42 45 48 52 56 60 63 65 63 59 57 56 59 63 69 74 81 87 93 100 105 110 115 114 110
17 16 14 14 14 14 13 13 15 17 20 23 24 26 29 33 36 39 43 46 50 54 58 61 63 63 57 55 54 55 59 64 69 75 82 88 93 99 105 109 115 111 107 103
21 20 17 15 14 14 15 16 16 16 19 23 27 31 34 37 41 44 49 52 56 58 61 60 55 52 49 51 55 59 64 70 76 82 88 93 98 104 108 113 105 103 101 94
21 17 17 16 16 18 18 20 22 25 29 32 35 37 40 44 48 51 54 55 54 53 51 47 45 47 51 55 60 65 71 76 82 88 93 99 105 107 113 102 99 96 92 88
20 22 24 25 25 26 28 29 30 33 35 39 42 45 48 51 54 54 50 48 46 42 41 44 48 52 57 62 67 72 77 83 89 94 100 104 107 113 99 96 94 91 87 82
30 30 30 32 32 32 33 34 38 42 43 45 49 52 55 56 51 46 43 40 39 42 46 50 54 59 63 69 74 79 84 90 95 101 104 109 114 98 93 93 90 86 81 73
39 38 37 37 38 38 41 43 46 48 51 52 55 55 50 43 39 37 37 40 44 48 52 56 61 65 70 75 80 86 91 97 101 103 109 112 98 92 90 89 86 80 72 64
51 48 47 46 47 48 49 51 53 54 57 53 44 38 36 36 37 39 43 47 51 54 58 63 68 72 77 83 88 93 98 101 104 109 110 95 90 88 88 85 80 70 62 58
47 55 53 52 53 54 55 55 51 42 37 35 36 37 38 41 44 47 50 54 58 61 66 70 75 80 85 90 95 99 103 106 110 107 92 88 86 85 84 78 69 61 56 53
29 36 42 46 43 39 36 35 35 37 38 39 41 43 46 48 51 54 57 61 65 70 74 78 82 87 92 97 101 105 108 110 104 90 84 83 82 80 74 66 59 54 51 45
34 33 34 35 37 38 39 39 41 42 44 45 47 50 52 55 58 62 66 69 73 77 81 85 90 95 99 103 106 109 108 99 87 82 81 80 78 71 62 57 52 48 42 37
42 42 42 42 44 45 46 47 48 49 51 53 55 57 60 63 66 70 73 76 80 84 88 92 97 100 104 106 108 105 95 86 82 79 77 74 68 59 53 50 46 41 35 30
49 49 50 50 51 52 53 54 55 56 58 60 62 65 68 71 74 77 80 84 87 91 95 98 101 104 106 105 101 92 83 81 77 74 71 64 56 50 47 44 38 33 29 26
Wind_Direction
96 95 79 88 108 107 119 137 160 171 176 183 188 188 187 186 186 190 195 200 205 208 214 221 227 233 239 244 250 255 260 266 271 275 278 281 284 287 289 292 293 296 298 299
110 102 97 68 94 85 123 103 128 143 165 176 179 180 180 182 182 189 195 201 206 211 217 224 231 237 243 247 252 257 263 268 273 278 281 285 287 289 292 292 295 297 298 300
119 113 105 90 86 96 85 149 120 158 175 175 177 175 181 183 184 191 197 203 209 216 222 228 236 243 248 252 255 261 267 272 277 281 285 287 290 291 292 294 296 298 300 301
139 129 125 116 115 135 135 120 147 163 178 178 179 177 185 186 187 193 200 207 214 222 229 236 242 248 253 255 259 265 271 276 280 284 287 289 290 292 293 295 298 300 302 302
147 141 145 142 148 154 129 137 174 169 186 182 181 182 188 188 192 198 206 213 220 229 236 243 248 253 257 261 265 270 275 279 283 286 288 289 291 292 296 299 300 301 302 303
161 169 157 157 161 155 160 169 192 185 185 181 184 187 189 191 198 205 211 219 227 235 242 248 253 259 263 267 271 275 278 282 285 287 289 291 294 297 298 299 300 301 304 305
108 136 146 185 194 214 221 201 204 189 188 187 188 189 193 200 206 213 219 227 235 241 247 253 258 263 267 272 277 281 283 284 287 290 293 296 296 297 299 300 302 304 305 305
184 196 189 101 185 195 222 200 201 191 191 192 193 195 200 206 213 220 227 233 241 248 254 259 263 268 272 276 280 283 285 288 291 293 294 296 297 299 301 303 304 304 306 307
201 168 180 182 178 199 215 208 203 199 196 197 199 202 208 214 221 228 235 242 248 254 261 266 270 273 276 279 282 285 289 290 292 294 296 297 300 302 303 303 304 306 307 309
219 214 190 191 196 205 210 211 212 211 202 203 206 212 218 223 230 237 244 250 255 261 267 271 274 277 279 283 286 288 289 291 294 295 297 300 301 302 303 304 306 307 310 312
215 217 214 208 205 205 219 216 211 211 209 209 214 221 227 233 240 246 253 259 264 268 272 275 278 280 283 285 287 288 290 293 295 298 300 300 301 302 304 306 308 310 312 313
207 215 222 218 217 215 218 225 216 212 213 219 225 232 238 244 250 255 260 264 268 272 275 277 279 282 285 286 288 291 293 296 298 299 299 301 303 304 307 309 311 313 315 317
213 210 213 218 217 219 223 223 221 219 221 227 233 239 245 251 257 260 264 268 271 273 276 280 282 283 287 289 292 296 297 298 298 299 301 302 305 308 310 312 314 317 318 318
213 214 211 212 218 221 224 228 230 232 236 239 244 249 254 259 263 265 268 271 273 275 278 281 285 288 291 294 296 296 297 298 298 300 302 306 308 310 311 314 317 318 318 315
205 212 213 209 216 225 230 235 239 243 247 251 255 258 260 262 265 269 273 275 278 281 284 286 288 292 294 295 294 296 296 297 299 303 306 307 308 311 315 317 318 318 315 313
233 236 237 237 240 245 247 251 253 256 257 257 260 262 265 270 272 275 279 282 284 285 287 289 291 293 293 294 294 295 297 300 304 306 307 308 311 314 316 318 319 316 314 316
246 251 252 257 263 266 261 259 264 266 266 268 270 271 273 276 278 280 283 286 289 289 290 292 292 293 293 294 295 298 301 304 305 306 308 311 314 316 317 320 318 315 316 319
240 240 248 247 248 245 245 256 261 264 267 270 272 277 281 283 285 287 287 288 289 291 292 293 293 294 295 297 299 302 303 305 306 309 312 313 316 318 320 319 315 315 319 321
248 238 239 242 243 245 253 260 265 270 273 276 278 279 281 285 288 289 289 289 291 292 292 293 295 297 299 300 301 303 305 307 309 311 313 316 318 321 320 316 316 319 322 322
246 247 250 252 254 258 261 265 270 273 275 278 280 283 287 290 291 290 289 290 290 290 292 296 297 298 300 302 304 305 307 309 311 313 316 319 321 322 317 316 319 322 321 321
249 250 253 256 260 265 269 273 277 279 281 284 287 289 290 290 288 288 289 289 290 292 295 296 299 301 302 304 306 308 309 310 312 315 319 322 323 318 317 318 321 322 321 320
251 252 255 259 263 267 272 274 277 280 283 286 286 285 284 285 287 288 288 289 292 296 298 300 301 303 305 307 307 309 310 312 315 319 322 323 320 317 318 320 321 321 321 322
252 251 254 258 262 266 269 273 275 275 275 276 279 282 285 287 287 290 294 296 298 299 301 302 304 306 306 306 308 310 312 314 318 322 323 321 318 318 319 321 320 321 323 324
258 255 256 259 262 263 265 268 272 275 279 283 285 288 290 292 294 296 297 299 300 302 303 303 304 305 306 308 310 311 314 317 322 324 321 317 317 319 320 320 321 322 324 325
262 262 261 262 264 267 271 274 278 280 283 286 289 291 293 295 297 297 298 299 300 301 303 304 305 306 308 309 311 313 316 322 323 321 317 317 318 320 320 320 322 324 325 325
265 267 269 271 273 275 277 279 280 284 286 288 291 293 294 295 296 296 297 299 301 302 302 304 305 307 308 309 312 316 321 323 321 317 316 317 319 319 320 322 324 326 325 324
265 267 269 271 273 276 278 281 283 285 287 289 290 291 292 293 295 296 298 299 300 301 302 304 305 306 309 312 315 319 322 321 317 317 317 318 319 320 322 323 325 325 325 331
Height
10375 10373 10369 10367 10364 10362 10361 10364 10368 10373 10381 10395 10410 10422 10436 10448 10463 10487 10504 10516 10527 10538 10547 10554 10560 10565 10570 10574 10576 10576 10575 10574 10572 10569 10565 10559 10554 10549 10541 10534 10525 10516 10505 10493
10383 10382 10383 10381 10379 10380 10382 10381 10383 10386 10394 10404 10416 10431 10443 10455 10468 10485 10500 10514 10525 10535 10543 10550 10556 10561 10564 10566 10566 10566 10565 10563 10560 10556 10551 10546 10540 10533 10525 10516 10507 10496 10485 10473
10388 10390 10391 10390 10392 10395 10394 10395 10397 10402 10409 10415 10427 10436 10450 10462 10472 10487 10501 10513 10523 10534 10541 10547 10551 10554 10555 10556 10557 10556 10554 10552 10547 10543 10537 10531 10524 10515 10507 10497 10487 10476 10464 10450
10392 10393 10396 10397 10401 10401 10402 10407 10410 10414 10419 10427 10436 10443 10458 10469 10479 10491 10503 10514 10524 10531 10537 10541 10544 10546 10547 10547 10547 10545 10542 10539 10534 10528 10522 10515 10506 10497 10488 10478 10466 10454 10440 10427
10397 10398 10401 10402 10404 10407 10412 10415 10416 10421 10426 10435 10443 10450 10463 10474 10485 10496 10507 10514 10521 10527 10531 10534 10536 10537 10537 10537 10536 10533 10529 10525 10520 10514 10506 10498 10490 10480 10469 10457 10445 10432 10419 10406
10405 10406 10408 10409 10411 10414 10420 10419 10421 10425 10433 10440 10447 10457 10467 10480 10490 10498 10506 10512 10517 10521 10524 10526 10527 10528 10527 10526 10523 10520 10516 10511 10505 10497 10489 10481 10471 10461 10449 10437 10424 10411 10396 10384
10408 10409 10411 10414 10417 10419 10422 10427 10427 10435 10440 10446 10454 10464 10474 10481 10488 10496 10502 10507 10511 10514 10516 10518 10518 10518 10516 10514 10511 10507 10502 10496 10488 10480 10471 10462 10451 10440 10429 10416 10403 10391 10378 10364
10411 10413 10413 10413 10416 10418 10422 10426 10430 10437 10444 10451 10458 10466 10473 10481 10488 10493 10498 10502 10504 10507 10508 10508 10508 10507 10505 10502 10497 10492 10486 10479 10471 10462 10452 10443 10431 10420 10410 10397 10384 10373 10360 10345
10409 10414 10416 10417 10418 10420 10424 10429 10435 10441 10447 10453 10460 10467 10473 10479 10484 10488 10492 10495 10497 10499 10499 10499 10498 10495 10492 10487 10481 10475 10469 10461 10452 10443 10434 10422 10412 10401 10390 10379 10369 10357 10344 10329
10406 10409 10414 10417 10421 10424 10427 10431 10436 10442 10448 10455 10461 10467 10472 10477 10481 10484 10486 10488 10489 10489 10489 10487 10485 10481 10476 10471 10465 10459 10451 10442 10434 10424 10415 10405 10395 10384 10373 10362 10350 10338 10326 10311
10405 10408 10411 10415 10420 10424 10428 10432 10437 10443 10449 10455 10460 10465 10469 10472 10475 10478 10479 10480 10480 10478 10477 10474 10470 10465 10460 10455 10449 10441 10433 10425 10416 10407 10398 10388 10379 10369 10357 10344 10333 10321 10307 10290
10405 10407 10410 10414 10418 10423 10427 10432 10437 10442 10447 10452 10457 10461 10465 10467 10469 10470 10470 10469 10467 10465 10463 10459 10454 10450 10445 10438 10431 10424 10417 10408 10399 10390 10381 10372 10362 10349 10340 10327 10311 10297 10281 10263
10404 10407 10410 10413 10417 10421 10426 10430 10435 10440 10445 10449 10453 10455 10457 10458 10459 10459 10458 10457 10455 10451 10448 10443 10439 10434 10429 10422 10415 10408 10399 10390 10382 10375 10367 10357 10347 10335 10320 10299 10284 10269 10252 10232
10403 10406 10409 10411 10414 10418 10422 10426 10430 10434 10438 10441 10444 10447 10449 10449 10448 10447 10445 10442 10439 10436 10433 10429 10425 10419 10413 10406 10399 10390 10382 10375 10369 10361 10351 10341 10329 10317 10304 10290 10272 10251 10227 10207
10401 10403 10406 10409 10412 10415 10419 10423 10426 10429 10432 10434 10436 10437 10436 10436 10434 10433 10431 10429 10427 10423 10420 10415 10410 10404 10397 10390 10382 10376 10369 10362 10354 10345 10335 10323 10312 10298 10283 10266 10248 10229 10207 10183
10399 10401 10403 10406 10409 10413 10416 10418 10420 10422 10424 10425 10426 10426 10425 10425 10424 10422 10420 10417 10414 10410 10405 10400 10395 10388 10381 10375 10369 10362 10355 10347 10338 10328 10317 10305 10292 10278 10262 10244 10225 10200 10179 10163
10396 10398 10401 10404 10406 10409 10411 10413 10415 10416 10417 10417 10417 10417 10417 10415 10413 10411 10407 10404 10400 10395 10390 10385 10379 10373 10367 10362 10355 10348 10340 10332 10322 10312 10300 10287 10272 10257 10240 10222 10198 10176 10158 10142
10392 10394 10396 10399 10402 10403 10405 10407 10408 10409 10409 10409 10408 10407 10405 10403 10401 10397 10394 10390 10386 10381 10376 10370 10365 10360 10354 10348 10340 10333 10324 10316 10305 10293 10280 10266 10251 10233 10215 10192 10173 10156 10139 10123
10387 10389 10392 10394 10395 10397 10398 10400 10400 10400 10400 10399 10398 10396 10393 10391 10387 10383 10379 10375 10371 10366 10362 10357 10352 10347 10340 10333 10326 10317 10307 10297 10285 10273 10259 10244 10226 10208 10186 10168 10151 10135 10122 10106
10381 10383 10385 10386 10388 10390 10391 10392 10391 10390 10389 10387 10385 10382 10379 10375 10372 10368 10364 10362 10358 10354 10350 10345 10340 10333 10326 10317 10309 10299 10289 10277 10265 10251 10237 10220 10202 10181 10162 10146 10132 10119 10105 10092
10372 10374 10375 10377 10378 10379 10379 10380 10378 10377 10375 10373 10370 10367 10363 10360 10358 10355 10353 10350 10346 10342 10337 10331 10325 10318 10309 10301 10291 10280 10270 10258 10244 10230 10214 10197 10176 10158 10143 10128 10116 10104 10090 10079
10360 10363 10364 10366 10366 10367 10367 10366 10364 10363 10361 10359 10356 10354 10352 10350 10347 10345 10341 10338 10333 10328 10323 10316 10309 10301 10293 10283 10272 10262 10249 10235 10221 10207 10191 10173 10155 10140 10125 10112 10100 10088 10077 10066
10346 10350 10352 10353 10355 10355 10355 10354 10353 10351 10350 10348 10346 10344 10342 10340 10336 10333 10329 10324 10319 10313 10307 10301 10293 10284 10274 10263 10252 10240 10226 10213 10199 10185 10168 10152 10136 10123 10110 10097 10085 10075 10065 10056
10337 10339 10341 10342 10342 10343 10343 10342 10341 10340 10339 10337 10336 10333 10330 10327 10324 10319 10314 10309 10304 10298 10291 10283 10274 10264 10254 10242 10231 10218 10204 10190 10178 10163 10148 10133 10120 10108 10096 10084 10074 10065 10056 10049
10330 10331 10332 10333 10333 10332 10332 10331 10330 10329 10327 10326 10324 10321 10317 10313 10309 10305 10299 10294 10288 10281 10273 10264 10255 10244 10233 10220 10208 10197 10183 10171 10158 10143 10129 10117 10105 10094 10083 10073 10065 10056 10049 10042
10319 10319 10320 10320 10320 10320 10319 10318 10317 10316 10314 10312 10310 10307 10303 10298 10294 10289 10283 10277 10270 10262 10254 10245 10234 10223 10211 10199 10188 10176 10164 10152 10138 10125 10114 10102 10091 10081 10072 10064 10056 10049 10043 10037
10306 10307 10307 10307 10307 10306 10306 10305 10304 10302 10300 10298 10295 10291 10286 10281 10276 10271 10265 10258 10251 10243 10234 10223 10213 10201 10190 10179 10167 10157 10146 10134 10121 10109 10098 10088 10079 10070 10063 10056 10049 10043 10038 10033